Погода в Улюнхане

Россия / Республика Бурятия     54°51′45″N   111°04′10″E
темп.,
°C
ветер,
м/с
пор.,
м/с
влажн.,
%
обл.,
%
осадки,
мм/ч
давл.,
гПа
погр.,
м
7 мая, пт
пт723:00+2с1277100 0.1 1007132
02:00+1с1287100 0.3 1006141
05:000ссз1488100 0.8 1007263
08:00+4ссв265591 1.1 1007980
11:00+9ссв453637 0.0 10071757
14:00+11ссв552967 0.0 10072534
17:00+10ссв56304 0.0 10082055
20:00+6ссв24480 0.0 101193
8 мая, сб
сб823:00+1с11670 0.0 101416
02:00−1зсз00740 0.0 101410
05:00−2в00803 0.0 101510
08:00+4в11533 0.0 1013455
11:00+10юв12324 0.0 10101417
14:00+13ююв232398 0.0 10062756
17:00+12ссв2225100 0.0 10062506
20:00+8с1138100 0.0 100723
9 мая, вс
вс923:00+4ссз115493 0.0 100914
02:00+2ююз116419 0.0 101111
05:000ссв00735 0.0 101210
08:00+5ю11501 0.0 1011571
11:00+10ю21335 0.0 10081555
14:00+12ююз433087 0.0 10072268
17:00+12юз333474 0.1 10061825
20:00+8ю255988 0.6 1008205
10 мая, пн
пн1023:00+4сз118316 0.7 101011
02:00+2ссз119043 1.3 101111
05:00+2ссв228972 0.0 101118
08:00+8св2356100 0.0 1009599
11:00+10зсз2344100 0.0 10091149
14:00+12ссв3436100 0.1 10082061
17:00+13ссв3434100 0.0 10071650
20:00+10с3544100 0.1 1008113
11 мая, вт
вт1123:00+7с255460 0.0 1010106
02:00+6с235798 0.0 101045
05:00+4с226020 0.0 101119
08:00+11св113857 0.0 1009612
11:00+16ююз112580 0.0 10082381
14:00+18ю212098 0.0 10063034
17:00+16зюз2222100 0.0 10052833
20:00+9св246683 0.4 1009181